Погода в Коньяке

Франция     45°41′34″N   0°19′28″E
темп.,
°C
ветер,
м/с
пор.,
м/с
влажн.,
%
обл.,
%
осадки,
мм/ч
давл.,
гПа
погр.,
м
9 марта, вт
вт901:00+2ссв36790 0.0 1022126
04:00+1ссв23810 0.0 102250
07:000ссв23853 0.0 102251
10:00+4с34670 0.0 1023361
13:00+8с33530 0.0 10231064
16:00+10ссз34510 0.0 10211251
19:00+6сз34720 0.0 102161
22:00+3ссз33851 0.0 102472
10 марта, ср
ср1001:00+2сз11900 0.0 102322
04:00+2з119064 0.0 102322
07:00+2ююв128981 0.0 102322
10:00+6ю3474100 0.0 1024276
13:00+10ююз455891 0.0 1023824
16:00+11юз465694 0.0 1021994
19:00+7юз337596 0.0 102045
22:00+8ююз41061100 0.0 1020319
11 марта, чт
чт1101:00+7ююз51190100 0.9 1019414
04:00+10ююз61290100 0.1 1018521
07:00+11юз61486100 0.2 1017671
10:00+13юз81585100 0.4 1017986
13:00+12зюз101790100 2.6 10171098
16:00+10зюз71285100 1.9 1018839
19:00+9з5118883 2.2 1020437
22:00+7зюз369228 0.0 1022129
12 марта, пт
пт1201:00+6юз349315 0.1 102264
04:00+6юз489272 0.3 1021166
07:00+5юз369375 0.4 1021119
10:00+10з697119 0.4 10211124
13:00+13з796132 1.2 10211574
16:00+12з810640 0.5 10201525
19:00+8зюз5118226 0.9 1020450
22:00+7юз4119067 0.1 1022339
13 марта, сб
сб1301:00+7юз5129049 0.4 1021397
04:00+8юз5128987 0.4 1019634
07:00+8юз6138594 0.7 1019664
10:00+10зюз71379100 0.3 10191242
13:00+11зюз101574100 0.9 10181524
16:00+11зюз10157699 0.6 10171417
19:00+10зюз91682100 1.4 10161147
22:00+9з71486100 1.4 10161239